CZ-6A DEB, 58429

Orbit data source: Space-Track

CZ-6A DEB, 58429 is space debris in SSO originally from a launch on Fri, 11 Nov 2022 UTC launched from the Taiyaun Space Center, China (TSC). Debris objects in space refer to the collection of defunct objects orbiting the Earth. Examples of debris include non-operational satellites, rocket bodies, and fragments generated from explosions, collisions, or faulty payload assembly.

Loading next visibility...
Identifier
58429, 2022-151AHX
Orbit
SSO
Country
Flag of CNCN / PRC
Related business
Manufacturer
SAST
Mission
Spacecraft
Bus & Motor
Unknown
Mass
Unknown
Launch date (UTC)
2022-11-11 (3 years ago)
Launch vehicle
Unknown
Launch site
Taiyaun Space Center, China (TSC)
Object type
Payload
Rocket body
Debris
Shape & HBR
Unknown shape, 0.1 m
Radar Cross Section
Small (<0.1 m²)

Expand to show TLE details & history
Last TLE update: 1 day ago

TLE from 1 day ago
0 CZ-6A DEB
1 58429U 22151AHX 25349.44897105  .00001620  00000-0  94738-3 0  9993
2 58429  98.8659 339.2844 0083763 171.1677 189.0989 14.07984856138430
Epoch: 2025-12-15T10:46Z
TLE epoch observation values (Epoch: 2025-12-15T10:46:31.098Z)
Latitude
-0.00004°
Longitude
93.30745°
Altitude
929.111 km
Speed
7.357 km/s
True Right ascension
22h 37m 08s
True Declination
0° 00' 00"
Sunlit
Object was in daylight at epoch
Visualization orbit readout
Latitude
Unknown
Longitude
Unknown
Altitude
Unknown
Speed
Unknown
Apparent Right ascension
Unknown
Apparent Declination
Unknown
Sunlit
N/A
Visualization observer readout
Local Sidereal Time
19:42:27
Azimuth
Unknown
Elevation
Unknown
Doppler factor
Unknown
Orbital elements
Apogee altitude
924.115 km
Perigee altitude
802.8 km
Semi-major axis
7,241.595 km
Eccentricity
0.00838
Inclination
98.8659°
RAAN
339.2844°
Arg. of periapsis
171.1677°
True anomaly
188.94866°
Mean anomaly
189.0989°
Eccentric anomaly
189.02363°
Mean motion
3.52202 °/min
Orbital period
102.21 mins
BSTAR
0.00094738
Loading maneuver chart data...
Computing Atmospheric mass density...
Loading historical data...
Loading historical data...
Loading historical data...
Loading historical data...
Loading historical data...
Loading historical data...
Loading historical data...

Documentation

Showing up to 5 results
|